Regional Weather Roundup
Issued by NWS

Home | Current Version | Previous Version | Graphics & Text | Print | Product List | Glossary On
Versions: 1 2 3 4 5 6 7 8 9 10 11 12 13 14 15 16 17 18 19 20 21 22 23 24 25 26 27 28 29 30 31 32 33 34 35 36 37 38 39 40 41 42 43 44 45 46 47 48 49 50
000
ASUS43 KMKX 301111
RWRWI

WISCONSIN REGIONAL WEATHER ROUNDUP
NATIONAL WEATHER SERVICE MILWAUKEE/SULLIVAN WI
600 AM CDT SAT AUG 30 2014

NOTE: "FAIR" INDICATES FEW OR NO CLOUDS BELOW 12,000 FEET WITH NO
SIGNIFICANT WEATHER AND/OR OBSTRUCTIONS TO VISIBILITY.

WIZ001-002-006>008-014>016-023>028-301200-
NORTHWEST WISCONSIN

CITY           SKY/WX    TMP DP  RH WIND       PRES   REMARKS
SUPERIOR ARPT  FOG       61  61 100 CALM      29.81R VSB 1
ASHLAND        LGT RAIN  61  60  97 NE9       29.81R FOG
HAYWARD        CLOUDY    62  61  96 N7        29.79R
SIREN          CLOUDY    63  62  97 N6        29.80R
RICE LAKE      RAIN      64  63  96 CALM      29.78S
LADYSMITH      CLOUDY    65  64  97 CALM      29.78S
EAU CLAIRE     CLOUDY    66  66 100 CALM      29.75R
MENOMONIE      DRIZZLE   66  66  98 CALM      29.77R
NEW RICHMOND   LGT RAIN  65  65 100 NW6       29.78R
OSCEOLA        CLOUDY    65  65 100 N6        29.81R
$$

WIZ003>005-009-010-017-018-301200-
NORTH CENTRAL WISCONSIN

CITY           SKY/WX    TMP DP  RH WIND       PRES   REMARKS
WOODRUFF       LGT RAIN  64  63  95 CALM      29.78R
RHINELANDER    LGT RAIN  63  62  97 CALM      29.78S FOG
EAGLE RIVER    FOG       63  63 100 CALM      29.78S VSB 1/2
LAND O LAKES   DRIZZLE   64  64 100 CALM      29.79S
PHILLIPS       LGT RAIN  63  63 100 CALM      29.78R
TOMAHAWK       RAIN      63  62  97 CALM      29.78R VSB 3/4
MEDFORD        CLOUDY    64  64 100 CALM      29.78R FOG
MERRILL        LGT RAIN  64  64 100 CALM      29.76S
$$

WIZ029-030-035-036-043>047-301200-
CENTRAL WISCONSIN

CITY           SKY/WX    TMP DP  RH WIND       PRES   REMARKS
WAUSAU         LGT RAIN  65  64  97 CALM      29.75R
MOSINEE        LGT RAIN  64  64 100 CALM      29.76R FOG
MARSHFIELD     CLOUDY    67  65  93 CALM      29.76R
STEVENS POINT  HVY RAIN  64  63  99 E3        29.75R
WAUPACA        MOCLDY    68  67  96 CALM      29.74S FOG
WAUTOMA        LGT RAIN  69  68  97 SW7       29.75S
WISC RAPIDS    HVY RAIN  67  66  97 NE8       29.74S FOG
CAMP DOUGLAS   PTCLDY    68  68 100 SW5       29.75S
$$

WIZ011>013-019>022-031-037>040-048>050-301200-
NORTHEAST WISCONSIN

CITY           SKY/WX    TMP DP  RH WIND       PRES   REMARKS
ANTIGO         CLOUDY    62  62 100 CALM      29.77R FOG
STURGEON BAY   CLOUDY    66  64  94 E5        29.76F
GREEN BAY      CLOUDY    68  67  96 E7        29.75F
MANITOWOC      CLOUDY    69  68  96 S7        29.76F FOG
APPLETON       CLOUDY    70  68  94 S6        29.75F
CLINTONVILLE   CLOUDY    66  64  94 CALM      29.74S
OSHKOSH        MOCLDY    70  68  93 S9        29.75S
$$

WIZ032>034-041-042-053>061-301200-
SOUTHWEST WISCONSIN

CITY           SKY/WX    TMP DP  RH WIND       PRES   REMARKS
LA CROSSE      LGT RAIN  69  66  90 CALM      29.74S
SPARTA         DRIZZLE   67  66  97 W5        29.76R
VIROQUA        CLOUDY    66  66 100 SW5       29.78R
BOSCOBEL       LGT RAIN  70  67  90 SW3       29.76S FOG
PRAIRIE DU CHI CLOUDY    69  66  89 S5        29.76S
PLATTEVILLE    CLOUDY    70  69  96 SW10      29.79S
$$

WIZ056-057-062-063-064-067-068-301200-
SOUTH CENTRAL WISCONSIN

CITY           SKY/WX    TMP DP  RH WIND       PRES   REMARKS
BARABOO/DELLS  PTCLDY    67  64  90 SW7       29.76S
LONE ROCK      MOCLDY    72  67  84 SW3       29.77R
WATERTOWN      PTCLDY    70  69  98 S8        29.79S
MADISON        CLOUDY    72  68  87 S7        29.77F
MIDDLETON      PTSUNNY   72  70  94 SW7       29.78S
MONROE         LGT RAIN  68  68 100 S13       29.79F
JANESVILLE     CLOUDY    72  68  88 S8        29.81R
$$

WIZ051-052-058>065-066-070>072-301200-
SOUTHEAST WISCONSIN

CITY           SKY/WX    TMP DP  RH WIND       PRES   REMARKS
MILWAUKEE      MOCLDY    72  67  84 SW10      29.81R
WAUKESHA       MOCLDY    68  66  94 SW7       29.82R
MILWAUKEE/TIMM MOCLDY    70  64  83 SW8       29.81R
RACINE         MOCLDY    73  68  84 SW7       29.83R
BURLINGTON     CLOUDY    69  67  94 SW10      29.82R
KENOSHA        MOCLDY    72  69  90 SW15G22   29.82R
FOND DU LAC    PTCLDY    70  67  90 SW12      29.76F
SHEBOYGAN      MOCLDY    70  67  90 SW9       29.77S
WEST BEND      PTCLDY    68  64  88 SW5       29.80R
JUNEAU         MOCLDY    69  67  94 S10       29.79S
$$

LSZ147-162-301200-
LAKE SUPERIOR

STATION/POSITION TIME  TEMP    WIND        PRES    WAVE
                       AIR SEA DIR/SP/G            HT/PER
                 (UTC) (F)     (DEG/KT/KT) (MB)    (FT/S)
W MID LAKE BUOY  1050   57 58   40/  8/  8 1008.9R   1
DEVILS ISLAND    1100   60      50/  4/  5 1009.1R
PORT WING        1000   62      60/  2/  3 1009.1
SAXON HARBOR     1040   62     360/ 10/ 11 1008.8S
$$

LMZ867-665-643>646-301200-
LAKE MICHIGAN

STATION/POSITION TIME  TEMP    WIND        PRES    WAVE
                       AIR SEA DIR/SP/G            HT/PER
                 (UTC) (F)     (DEG/KT/KT) (MB)    (FT/S)
N MID LAKE BUOY  1050   67 65  180/  8/ 10 1008.1F   3/ 6
NORTHPORT PIER   1000   68      10/  4/  5 1008.1F
SISTER BAY       0926   67        CALM       N/A
ALGOMA LAKESHORE 1038             CALM       N/A
KEWAUNEE LAKESHO 1000   69     110/  2/  5 1007.2F
SHEBOYGAN LAKESH 1100   69 58  180/ 15/ 15 1008.1F
ATWATER BUOY     1100   71     210/ 12/ 12 1010.3R
MILWAUKEE LAKESH 1000   74     230/ 14/ 17   N/A
S MID LAKE BUOY  1050   72 69  190/ 16/ 17 1009.5R
KENOSHA   LAKESH 1100   74     220/ 10/ 13 1009.5R
$$

TC  - TEMPERATURE IN CELSIUS
VSB - VISIBILITY IN STATUTE MILES
WCI - WIND CHILL INDEX
HX  - HEAT INDEX



USA.gov is the U.S. government's official web portal to all federal, state and local government web resources and services.